TimeEST,TemperatureF,Dew PointF,Humidity,Sea Level PressureIn,VisibilityMPH,Wind Direction,Wind SpeedMPH,Gust SpeedMPH,PrecipitationIn,Events,Conditions,WindDirDegrees,DateUTC
12:58 AM,25.9,21.6,84,30.49,10.0,South,3.5,-,N/A,,Clear,180,2013-12-08 05:58:00
1:58 AM,25.2,21.2,85,30.50,10.0,South,2.3,-,N/A,,Mostly Cloudy,190,2013-12-08 06:58:00
2:58 AM,26.8,22.1,83,30.50,10.0,NW,2.3,-,N/A,,Overcast,310,2013-12-08 07:58:00
3:58 AM,23.2,18.3,82,30.52,10.0,WNW,4.6,-,N/A,,Clear,300,2013-12-08 08:58:00
4:58 AM,23.5,19.6,85,30.53,10.0,Calm,Calm,-,N/A,,Scattered Clouds,0,2013-12-08 09:58:00
5:58 AM,20.7,19.8,96,30.55,10.0,WSW,3.5,-,N/A,,Clear,240,2013-12-08 10:58:00
6:58 AM,17.6,17.2,98,30.57,10.0,East,1.2,-,N/A,,Clear,100,2013-12-08 11:58:00
7:58 AM,22.3,21.7,98,30.57,10.0,Calm,Calm,-,N/A,,Clear,0,2013-12-08 12:58:00
8:58 AM,26.4,23.0,87,30.59,10.0,SE,2.3,-,N/A,,Clear,130,2013-12-08 13:58:00
9:58 AM,28.2,22.1,78,30.61,10.0,NW,2.3,-,N/A,,Partly Cloudy,320,2013-12-08 14:58:00
10:58 AM,29.5,17.1,60,30.61,10.0,Variable,1.2,-,N/A,,Partly Cloudy,0,2013-12-08 15:58:00
11:58 AM,29.8,16.3,57,30.56,10.0,Calm,Calm,-,N/A,,Partly Cloudy,0,2013-12-08 16:58:00
12:58 PM,30.4,15.8,55,30.57,10.0,North,2.3,-,N/A,,Clear,360,2013-12-08 17:58:00
1:58 PM,30.2,15.1,53,30.54,10.0,NNE,3.5,-,N/A,,Scattered Clouds,30,2013-12-08 18:58:00
2:58 PM,30.0,14.0,51,30.53,10.0,Calm,Calm,-,N/A,,Scattered Clouds,0,2013-12-08 19:58:00
3:58 PM,29.8,15.4,55,30.56,10.0,East,2.3,-,N/A,,Mostly Cloudy,100,2013-12-08 20:58:00
4:58 PM,28.9,16.7,60,30.57,10.0,Calm,Calm,-,N/A,,Overcast,0,2013-12-08 21:58:00
5:58 PM,28.9,15.6,58,30.55,10.0,ESE,2.3,-,N/A,,Overcast,110,2013-12-08 22:58:00
6:58 PM,28.4,18.5,66,30.55,10.0,East,2.3,-,N/A,,Overcast,100,2013-12-08 23:58:00
7:58 PM,28.9,17.1,61,30.55,10.0,ESE,2.3,-,N/A,,Mostly Cloudy,120,2013-12-09 00:58:00
8:58 PM,28.9,16.3,59,30.53,10.0,East,2.3,-,N/A,,Scattered Clouds,80,2013-12-09 01:58:00
9:58 PM,28.8,16.9,61,30.50,10.0,ENE,4.6,-,N/A,,Partly Cloudy,70,2013-12-09 02:58:00
10:58 PM,28.4,17.6,64,30.49,10.0,Variable,2.3,-,N/A,,Mostly Cloudy,0,2013-12-09 03:58:00
11:51 PM,28.4,17.6,64,30.47,10.0,NE,4.6,-,N/A,Snow,Light Snow,40,2013-12-09 04:51:00
11:58 PM,28.4,18.3,66,30.49,10.0,NE,5.8,-,0.00,Snow,Light Snow,50,2013-12-09 04:58:00